This demonstration page uses our WeatherBlox Daily Observations layout. Learn more.

Left ArrowRight Arrow

38.20091, -84.87328

Hourly Observations for July 12, 2022

Temp ( °F °C ) Dew Point ( °F °C ) Humidity (%) Winds ( mph kmh ) Pressure ( in mb ) Visibility ( mi km ) Precip ( " mm )
12:53 am 00:53 Clear 74 23.3 66 18.9 76 76 SW 6 9 29.87 1011 10 16 0.00 0.00
1:53 am 01:53 Clear 73 22.8 66 18.9 79 79 SW 5 7 29.86 1011 10 16 0.00 0.00
2:53 am 02:53 Clear 73 22.8 67 19.4 81 81 SW 3 6 29.85 1011 10 16 0.00 0.00
3:53 am 03:53 Clear 71 21.7 66 18.9 84 84 SW 5 7 29.85 1011 10 16 0.00 0.00
4:53 am 04:53 Clear 71 21.7 67 19.4 87 87 SSW 7 11 29.84 1011 10 16 0.00 0.00
5:53 am 05:53 Mostly Clear 71 21.7 67 19.4 87 87 SW 7 11 29.84 1011 10 16 0.00 0.00
6:53 am 06:53 Mostly Sunny 71 21.7 67 19.4 87 87 SW 7 11 29.85 1011 10 16 0.00 0.00
7:53 am 07:53 Sunny 75 23.9 68 20 79 79 SW 7 11 29.84 1011 10 16 0.00 0.00
8:53 am 08:53 Sunny 79 26.1 69 20.6 72 72 SW 9 15 29.85 1011 10 16 0.00 0.00
9:53 am 09:53 Sunny 82 27.8 69 20.6 65 65 SW 9 15 29.85 1011 10 16 0.00 0.00
10:53 am 10:53 Sunny 85 29.4 71 21.7 63 63 WSW 12 19 29.85 1011 10 16 0.00 0.00
11:53 am 11:53 Partly Cloudy 85 29.4 71 21.7 63 63 W 7 11 29.85 1011 10 16 0.00 0.00
12:53 pm 12:53 Mostly Cloudy 86 30 72 22.2 63 63 WSW 9 15 29.86 1011 10 16 0.00 0.00
1:05 pm 13:05 Mostly Cloudy 87 30.6 72 22.2 61 61 W 9 15 29.84 1011 10 16 0.00 0.00
1:27 pm 13:27 Partly Cloudy 87 30.6 72 22.2 61 61 W 7 11 29.84 1011 10 16 0.00 0.00
1:53 pm 13:53 Mostly Cloudy 87 30.6 72 22.2 61 61 WSW 8 13 29.86 1011 10 16 0.00 0.00
2:53 pm 14:53 Mostly Cloudy 88 31.1 71 21.7 57 57 VRB 6 9 29.86 1011 10 16 0.00 0.00
3:53 pm 15:53 Partly Cloudy 89 31.7 70 21.1 53 53 WNW 12 19 29.85 1011 10 16 0.00 0.00
4:53 pm 16:53 Sunny 88 31.1 64 17.8 45 45 W 10 17 29.85 1011 10 16 0.00 0.00
5:53 pm 17:53 Sunny 88 31.1 63 17.2 43 43 WNW 9 15 29.84 1010 10 16 0.00 0.00
6:53 pm 18:53 Sunny 88 31.1 64 17.8 45 45 VRB 6 9 29.86 1011 10 16 0.00 0.00
7:53 pm 19:53 Sunny 86 30 64 17.8 48 48 NW 8 13 29.85 1011 10 16 0.00 0.00
8:53 pm 20:53 Sunny 81 27.2 62 16.7 53 53 WNW 5 7 29.87 1012 10 16 0.00 0.00
9:53 pm 21:53 Clear 75 23.9 64 17.8 69 69 W 3 6 29.88 1012 10 16 0.00 0.00
10:53 pm 22:53 Clear 76 24.4 62 16.7 62 62 WNW 3 6 29.91 1013 10 16 0.00 0.00
11:53 pm 23:53 Clear 72 22.2 64 17.8 76 76 Calm 29.93 1014 10 16 0.00 0.00

Powered by AerisWeather